User: anonymous   Login
Location: Columbia
(38.9520°N, 92.3340°W)
Time: 19:19:03
(UTC-06:00)
Language:

SL-08 RB Rocket - Orbit

View from above orbital plane
View from above orbital plane
View from above satellite
View from above satellite

Ground track
Ground track

The orbit data is extracted from the following two-line orbital elements,

1 26387U 00033D   16039.37370573  .00000443  00000-0  85274-4 0  9997
2 26387  98.0339 108.4898 0027898 108.0372 315.2583 14.68087603835278
Epoch (UTC): 08 February 2016 08:58:08
Eccentricity: 0.0027898
inclination: 98.0339°
perigee height: 647 km
apogee height: 687 km
right ascension of ascending node: 108.4898°
argument of perigee: 108.0372°
revolutions per day: 14.68087603
mean anomaly at epoch: 315.2583°
orbit number at epoch: 83527

The dashed part of the orbit path shows where the satellite is in the earth's shadow,  

DLR